EW9994 Pistoia PT current weather conditions

sailwx.info

Wind from 341 at 0 knots gusting 2

Air temperature 12.2° C
Dewpoint 11.6° C

Last reported at 2019-Dec-09 12:49 UTC.
Time now 2019-Dec-09 13:29 UTC

Location: N 43°58' E 010°57'.
View on Google Maps.

See reports from other nearby stations

  
Tides and Currents Weather Stations Pressure Air Temp Water Temp Dewpoint Dewpoint Depression Visibility Wind Speed Wind Dir Waves Ship Positions
date/time (UTC)wind fromknots sea level pressurealtimeterstation pressurevisibilityair tempwater tempwave heightnotes
2019-Dec-09 12:49 341 0 gusting 2 12.2
2019-Dec-09 12:44 076 1 gusting 2 12.2
2019-Dec-09 12:39 022 11.7
2019-Dec-09 12:34 021 2 gusting 4 11.7
2019-Dec-09 12:19 029 2 gusting 4 11.7
2019-Dec-09 12:09 022 2 gusting 4 11.1
2019-Dec-09 12:04 044 0 gusting 4 11.1
2019-Dec-09 11:49 332 2 gusting 2 11.1
2019-Dec-09 11:39 118 2 gusting 2 11.1
2019-Dec-09 11:34 246 0 gusting 8 11.7
2019-Dec-09 11:19 110 3 gusting 6 11.7
2019-Dec-09 11:09 131 1 gusting 4 12.2
2019-Dec-09 11:04 151 5 gusting 6 12.2
2019-Dec-09 10:44 043 0 gusting 2 11.7
2019-Dec-09 10:39 036 2 gusting 5 11.1
2019-Dec-09 10:19 219 0 gusting 1 11.1
2019-Dec-09 10:14 219 0 gusting 1 11.1
2019-Dec-09 10:09 220 10.6
2019-Dec-09 10:04 220 11.1
2019-Dec-09 09:49 231 1 gusting 6 11.1
2019-Dec-09 09:39 226 5 gusting 8 11.1
2019-Dec-09 09:34 150 4 gusting 8 11.1
2019-Dec-09 09:14 134 2 gusting 5 11.1
2019-Dec-09 09:04 222 1 gusting 6 11.1
2019-Dec-09 08:44 205 0 gusting 2 10.6
2019-Dec-09 08:39 233 1 gusting 2 10.6
2019-Dec-09 07:49 024 2 gusting 6 10.6
2019-Dec-09 07:44 121 2 gusting 6 10.6
2019-Dec-09 07:39 058 2 gusting 6 10.6
2019-Dec-09 07:34 155 1 gusting 2 10.6
2019-Dec-09 07:19 186 0 gusting 2 10.6
2019-Dec-09 07:09 176 1 gusting 5 10.6
2019-Dec-09 06:49 212 0 gusting 2 10.6
2019-Dec-09 06:34 212 0 gusting 0 10.0
2019-Dec-09 06:19 212 10.0
2019-Dec-09 06:14 212 10.0
2019-Dec-09 06:04 212 10.0
2019-Dec-09 05:49 212 0 gusting 2 10.0
2019-Dec-09 05:39 157 2 gusting 2 10.0
2019-Dec-09 05:34 310 0 gusting 1 10.0
2019-Dec-09 05:19 337 10.6
2019-Dec-09 05:14 337 0 gusting 0 10.6
2019-Dec-09 05:09 337 0 gusting 1 10.6
2019-Dec-09 05:04 113 10.6
2019-Dec-09 04:34 183 0 gusting 1 10.6
2019-Dec-09 04:09 180 2 gusting 4 10.6
2019-Dec-09 03:44 074 0 gusting 0 10.6
2019-Dec-09 03:39 074 10.6
2019-Dec-09 03:34 072 10.6
2019-Dec-09 03:14 052 1 gusting 2 10.6
2019-Dec-09 03:09 058 1 gusting 2 10.6
2019-Dec-09 03:04 043 0 gusting 4 10.6
2019-Dec-09 02:49 10.6
2019-Dec-09 02:44 022 0 gusting 2 10.6
2019-Dec-09 02:39 023 0 gusting 0 10.6
2019-Dec-09 02:34 023 0 gusting 2 10.6
2019-Dec-09 02:19 023 1 gusting 2 10.6
2019-Dec-09 02:04 036 0 gusting 2 10.6
2019-Dec-09 01:44 053 0 gusting 2 10.6
2019-Dec-09 01:39 053 10.6
2019-Dec-09 01:34 053 0 gusting 0 10.6
2019-Dec-09 01:19 053 10.6
2019-Dec-09 01:14 053 10.6
2019-Dec-09 01:09 053 10.6
2019-Dec-09 01:04 053 10.6
2019-Dec-09 00:44 054 1 gusting 2 10.6
2019-Dec-09 00:39 053 1 gusting 1 10.6
2019-Dec-09 00:34 054 1 gusting 2 10.6
2019-Dec-09 00:19 056 11.1
2019-Dec-09 00:14 056 0 gusting 1 11.1
2019-Dec-09 00:09 056 0 gusting 4 11.1
2019-Dec-09 00:04 056 11.1
2019-Dec-08 23:49 008 0 gusting 2 11.1
2019-Dec-08 23:44 046 11.1
2019-Dec-08 23:39 037 0 gusting 2 11.1
2019-Dec-08 23:34 037 2 gusting 2 11.1
2019-Dec-08 23:19 037 11.1
2019-Dec-08 23:09 038 1 gusting 2 11.1
2019-Dec-08 23:04 039 2 gusting 4 10.6
2019-Dec-08 22:39 036 1 gusting 2 10.6
2019-Dec-08 22:34 035 2 gusting 2 10.6
2019-Dec-08 22:14 029 10.6
2019-Dec-08 22:09 029 10.6
2019-Dec-08 21:49 034 2 gusting 4 10.6
2019-Dec-08 21:44 035 2 gusting 4 10.6
2019-Dec-08 21:39 019 2 gusting 4 10.6
2019-Dec-08 21:34 037 3 gusting 4 10.6
2019-Dec-08 21:19 018 2 gusting 2 10.6
2019-Dec-08 21:09 031 1 gusting 2 10.6
2019-Dec-08 21:04 012 1 gusting 4 10.6
2019-Dec-08 20:39 038 0 gusting 4 11.1
2019-Dec-08 20:34 040 2 gusting 2 11.1
2019-Dec-08 20:14 043 2 gusting 2 11.1
2019-Dec-08 20:09 044 2 gusting 2 11.1
2019-Dec-08 19:49 162 0 gusting 0 11.7
2019-Dec-08 19:44 162 11.7
2019-Dec-08 19:39 162 11.7
2019-Dec-08 19:34 044 11.7
2019-Dec-08 19:19 044 0 gusting 1 11.7
2019-Dec-08 19:09 045 1 gusting 2 11.7
2019-Dec-08 19:04 029 11.7
2019-Dec-08 18:44 034 2 gusting 5 11.7
2019-Dec-08 18:39 039 2 gusting 4 11.7
2019-Dec-08 18:34 032 1 gusting 4 11.7
2019-Dec-08 18:19 032 1 gusting 4 11.7
2019-Dec-08 18:14 030 2 gusting 2 11.7
2019-Dec-08 18:09 031 1 gusting 2 11.7
2019-Dec-08 17:44 044 2 gusting 4 11.7
2019-Dec-08 17:09 036 0 gusting 2 11.7
2019-Dec-08 17:04 036 2 gusting 2 11.7
2019-Dec-08 16:49 053 1 gusting 2 12.2
2019-Dec-08 16:44 055 1 gusting 2 12.2
2019-Dec-08 16:19 017 0 gusting 4 12.2
2019-Dec-08 16:14 039 4 gusting 5 12.2
2019-Dec-08 16:09 023 2 gusting 4 12.2
2019-Dec-08 16:04 031 2 gusting 4 12.2
2019-Dec-08 15:49 029 2 gusting 5 12.2
2019-Dec-08 15:44 023 3 gusting 5 12.2
2019-Dec-08 15:39 033 2 gusting 4 12.2
2019-Dec-08 15:34 030 2 gusting 4 12.2
2019-Dec-08 15:19 038 2 gusting 2 12.8
2019-Dec-08 15:14 070 1 gusting 2 12.8
2019-Dec-08 15:04 245 13.3
2019-Dec-08 14:44 245 13.9
2019-Dec-08 14:39 254 0 gusting 1 14.4
2019-Dec-08 14:34 255 0 gusting 0 14.4
2019-Dec-08 14:19 255 13.9
2019-Dec-08 14:14 255 13.9
2019-Dec-08 14:09 255 13.9
2019-Dec-08 14:04 081 13.9
2019-Dec-08 13:49 252 0 gusting 1 13.9
2019-Dec-08 13:39 252 0 gusting 1 13.3
2019-Dec-08 13:19 250 0 gusting 0 13.3
2019-Dec-08 13:14 250 13.3
2019-Dec-08 12:44 250 0 gusting 1 12.8
2019-Dec-08 12:39 250 0 gusting 1 12.8
2019-Dec-08 12:19 271 0 gusting 1 12.8
2019-Dec-08 12:14 271 0 gusting 1 12.8
2019-Dec-08 12:09 271 0 gusting 2 12.8
2019-Dec-08 12:04 240 0 gusting 2 12.8
2019-Dec-08 11:49 240 12.8
2019-Dec-08 11:44 240 1 gusting 2 12.8
2019-Dec-08 11:19 205 0 gusting 1 12.8
2019-Dec-08 11:04 222 0 gusting 2 12.8
2019-Dec-08 10:49 232 1 gusting 2 12.8
2019-Dec-08 10:44 197 0 gusting 2 12.8
2019-Dec-08 10:39 246 12.8
2019-Dec-08 10:34 246 12.8
2019-Dec-08 10:19 246 12.8
2019-Dec-08 10:14 246 12.8
2019-Dec-08 10:09 246 12.8
2019-Dec-08 10:04 246 12.2
2019-Dec-08 09:44 238 0 gusting 2 12.2
2019-Dec-08 09:34 226 0 gusting 2 12.2
2019-Dec-08 09:09 267 1 gusting 2 12.2
2019-Dec-08 09:04 353 12.2
2019-Dec-08 08:49 030 11.7
2019-Dec-08 08:34 030 1 gusting 2 11.7
2019-Dec-08 08:19 036 1 gusting 2 11.1
2019-Dec-08 08:14 025 1 gusting 2 11.1
2019-Dec-08 08:04 020 10.6
2019-Dec-08 07:49 020 10.6
2019-Dec-08 07:44 020 10.6
2019-Dec-08 07:39 020 1 gusting 2 10.6
2019-Dec-08 07:19 047 1 gusting 2 10.0
2019-Dec-08 07:14 047 2 gusting 2 10.0
2019-Dec-08 07:04 036 0 gusting 1 10.0
2019-Dec-08 06:44 036 10.0
2019-Dec-08 06:39 036 10.0
2019-Dec-08 06:34 036 10.6
2019-Dec-08 06:19 036 0 gusting 0 10.6
2019-Dec-08 06:14 036 10.6
2019-Dec-08 05:49 037 0 gusting 1 10.6
2019-Dec-08 05:44 037 10.6
2019-Dec-08 05:39 037 10.6
2019-Dec-08 05:19 036 1 gusting 5 10.6
2019-Dec-08 05:14 044 4 gusting 6 10.6
2019-Dec-08 05:09 036 4 gusting 5 10.6
2019-Dec-08 05:04 027 4 gusting 5 10.6
2019-Dec-08 04:49 033 2 gusting 2 10.0
2019-Dec-08 04:44 058 0 gusting 1 10.0
2019-Dec-08 04:39 031 1 gusting 2 10.0
2019-Dec-08 04:19 025 0 gusting 1 10.0
2019-Dec-08 04:09 034 3 gusting 4 10.0
2019-Dec-08 04:04 034 4 gusting 5 10.0
2019-Dec-08 03:44 021 2 gusting 6 9.4
2019-Dec-08 03:39 038 3 gusting 5 9.4
2019-Dec-08 03:34 040 1 gusting 2 9.4
2019-Dec-08 03:09 028 4 gusting 6 9.4
2019-Dec-08 03:04 038 3 gusting 5 9.4
2019-Dec-08 02:39 040 9.4
2019-Dec-08 02:34 028 2 gusting 6 9.4
2019-Dec-08 02:19 015 4 gusting 5 8.9
2019-Dec-08 02:14 036 1 gusting 5 8.9
2019-Dec-08 02:09 035 2 gusting 4 8.9
2019-Dec-08 02:04 025 2 gusting 6 8.9
2019-Dec-08 01:49 035 2 gusting 5 8.9
2019-Dec-08 01:39 035 2 gusting 2 9.4
2019-Dec-08 01:19 043 2 gusting 4 10.0
2019-Dec-08 01:14 059 0 gusting 2 10.0
2019-Dec-08 01:09 062 10.0
2019-Dec-08 00:44 063 10.6
2019-Dec-08 00:14 044 11.1
2019-Dec-08 00:09 044 11.1
2019-Dec-07 23:34 019 2 gusting 4 10.6
2019-Dec-07 23:19 034 2 gusting 2 10.6
2019-Dec-07 23:14 043 2 gusting 4 10.6
2019-Dec-07 23:09 032 5 gusting 6 10.6
2019-Dec-07 23:04 037 0 gusting 4 10.6
2019-Dec-07 22:49 040 0 gusting 2 10.6
2019-Dec-07 22:44 026 2 gusting 2 10.6
2019-Dec-07 22:39 044 0 gusting 2 10.6
2019-Dec-07 22:19 027 5 gusting 6 10.6
2019-Dec-07 22:09 037 4 gusting 6 10.6
2019-Dec-07 21:49 023 0 gusting 1 11.1
2019-Dec-07 21:44 023 0 gusting 1 11.1
2019-Dec-07 21:34 023 11.1
2019-Dec-07 21:19 030 2 gusting 6 11.1
2019-Dec-07 21:14 031 4 gusting 6 11.1
2019-Dec-07 21:09 062 1 gusting 4 11.1
2019-Dec-07 21:04 032 1 gusting 4 11.1
2019-Dec-07 20:49 027 2 gusting 4 11.7
2019-Dec-07 20:39 356 1 gusting 2 11.7
2019-Dec-07 20:19 329 2 gusting 6 11.7
2019-Dec-07 20:14 039 3 gusting 4 11.7
2019-Dec-07 19:49 040 4 gusting 5 11.7
2019-Dec-07 19:44 020 0 gusting 1 11.7
2019-Dec-07 19:39 020 1 gusting 2 11.7
2019-Dec-07 19:34 021 2 gusting 4 11.7
2019-Dec-07 19:09 035 2 gusting 4 11.7
2019-Dec-07 19:04 060 11.7
2019-Dec-07 18:49 056 11.7
2019-Dec-07 18:39 046 2 gusting 4 11.7
2019-Dec-07 18:34 025 1 gusting 2 11.7
2019-Dec-07 18:19 357 1 gusting 2 11.7
2019-Dec-07 18:14 015 1 gusting 2 11.1
2019-Dec-07 18:09 027 1 gusting 4 11.1
2019-Dec-07 18:04 025 1 gusting 5 11.1
2019-Dec-07 17:49 032 1 gusting 2 11.1
2019-Dec-07 17:44 033 2 gusting 4 11.1
2019-Dec-07 17:39 044 2 gusting 2 11.1
2019-Dec-07 17:34 044 1 gusting 2 11.1
2019-Dec-07 17:09 044 11.7
2019-Dec-07 16:49 044 2 gusting 2 11.7
2019-Dec-07 16:44 044 0 gusting 2 11.7
2019-Dec-07 16:34 044 0 gusting 2 11.7
2019-Dec-07 16:19 044 2 gusting 2 11.7
2019-Dec-07 16:14 036 1 gusting 2 11.7
2019-Dec-07 16:09 019 1 gusting 4 11.7
2019-Dec-07 16:04 022 2 gusting 4 11.7
2019-Dec-07 15:49 016 0 gusting 2 11.7
2019-Dec-07 15:39 044 1 gusting 4 11.7
2019-Dec-07 15:19 025 1 gusting 2 12.2
2019-Dec-07 15:04 304 0 gusting 2 12.2
2019-Dec-07 14:49 051 12.2
2019-Dec-07 14:44 051 1 gusting 2 12.2
2019-Dec-07 14:39 044 2 gusting 2 12.2
2019-Dec-07 14:34 024 1 gusting 2 12.2
2019-Dec-07 14:19 315 12.8
2019-Dec-07 14:04 315 12.2
2019-Dec-07 13:44 075 0 gusting 2 12.8
2019-Dec-07 13:19 198 12.2
2019-Dec-07 13:14 198 12.2
2019-Dec-07 13:09 198 12.2